Weather History for Menomonie, WI

Change the Weather History Date:

Thursday, October 4, 2012

  Actual Average (KEAU) Record (KEAU)
Temperature  
Mean Temperature 50 °F 52 °F  
Max Temperature 59 °F 63 °F 86 °F (1897)
Min Temperature 42 °F 41 °F 23 °F (1989)
Degree Days  
Heating Degree Days 14 13  
Month to date heating degree days 51  
Since 1 July heating degree days 284  
Cooling Degree Days 0 0  
Month to date cooling degree days 0  
Year to date cooling degree days 575  
Moisture  
Dew Point 35 °F    
Average Humidity 57    
Maximum Humidity 76    
Minimum Humidity 41    
Precipitation  
Precipitation 0.00 in 0.09 in 2.82 in (1900)
Month to date precipitation 0.40  
Year to date precipitation 26.20  
Snow  
Snow 0.00 in 0.00 in 0.00 in ()
Month to date snowfall 0.0  
Since 1 July snowfall 0.0  
Since 1 September snowfall 0.0  
Snow Depth -    
Sea Level Pressure  
Sea Level Pressure 29.96 in    
Wind  
Wind Speed 14 mph (SW)    
Max Wind Speed 24 mph    
Max Gust Speed 37 mph    
Visibility 10 miles    
Events      
T = Trace of Precipitation, MM = Missing Value Source: NWS Daily Summary

Daily Weather History Graph

Daily Weather History Graph

Search for Another Location

Airport:

Trip Planner

Search our weather history database for the weather conditions in past years. The results will help you decide how hot, cold, wet, or windy it might be!

Date:

Astronomy

Oct. 04, 2012 Rise Set
Actual Time 7:09 AM CDT 6:41 PM CDT
Civil Twilight 6:40 AM CDT 7:10 PM CDT
Nautical Twilight 6:06 AM CDT 7:44 PM CDT
Astronomical Twilight 5:32 AM CDT 8:18 PM CDT
Moon 9:05 PM CDT (10/4) 11:38 AM CDT (10/4)
Length of Visible Light 12h 30m
Length of Day
11h 31m
Waning Gibbous, 82% of the Moon is Illuminated
Oct 4
Waning Gibbous
Oct 8
Last Quarter
Oct 15
New
Oct 21
First Quarter
Oct 29
Full

Hourly Weather History & Observations

Time (CDT) Temp. Windchill Dew Point Humidity Pressure Visibility Wind Dir Wind Speed Gust Speed Precip Events Conditions
12:15 AM 53.6 °F - 42.8 °F 67% 29.91 in 10.0 mi ESE 5.8 mph - N/A   Clear
12:35 AM 53.6 °F - 42.8 °F 67% 29.90 in 10.0 mi ESE 6.9 mph - N/A   Clear
12:55 AM 53.6 °F - 42.8 °F 67% 29.90 in 10.0 mi ESE 8.1 mph - N/A   Clear
1:15 AM 53.6 °F - 42.8 °F 67% 29.89 in 10.0 mi ESE 9.2 mph - N/A   Clear
1:35 AM 53.6 °F - 42.8 °F 67% 29.88 in 10.0 mi ESE 9.2 mph - N/A   Clear
1:55 AM 53.6 °F - 42.8 °F 67% 29.88 in 10.0 mi ESE 8.1 mph - N/A   Clear
2:15 AM 53.6 °F - 42.8 °F 67% 29.87 in 10.0 mi ESE 9.2 mph - N/A   Clear
2:35 AM 53.6 °F - 42.8 °F 67% 29.86 in 10.0 mi ESE 6.9 mph - N/A   Clear
2:55 AM 53.6 °F - 42.8 °F 67% 29.86 in 10.0 mi ESE 11.5 mph - N/A   Clear
3:15 AM 55.4 °F - 44.6 °F 67% 29.85 in 10.0 mi ESE 10.4 mph - N/A   Clear
3:35 AM 53.6 °F - 42.8 °F 67% 29.84 in 10.0 mi ESE 8.1 mph - N/A   Clear
3:55 AM 51.8 °F - 42.8 °F 71% 29.84 in 10.0 mi ESE 8.1 mph - N/A   Clear
4:15 AM 51.8 °F - 42.8 °F 71% 29.83 in 10.0 mi ESE 9.2 mph - N/A   Clear
4:35 AM 51.8 °F - 42.8 °F 71% 29.83 in 10.0 mi SE 6.9 mph - N/A   Clear
4:55 AM 51.8 °F - 42.8 °F 71% 29.82 in 10.0 mi ESE 6.9 mph - N/A   Clear
5:15 AM 51.8 °F - 44.6 °F 76% 29.82 in 10.0 mi ESE 8.1 mph - N/A   Clear
5:35 AM 50.0 °F - 42.8 °F 76% 29.82 in 10.0 mi SE 6.9 mph - N/A   Clear
5:55 AM 59.0 °F - 42.8 °F 55% 29.82 in 10.0 mi South 12.7 mph 17.3 mph N/A   Scattered Clouds
6:15 AM 59.0 °F - 41.0 °F 51% 29.82 in 10.0 mi SSW 15.0 mph 21.9 mph N/A   Scattered Clouds
6:35 AM 59.0 °F - 39.2 °F 48% 29.83 in 10.0 mi SSW 17.3 mph 23.0 mph N/A   Clear
6:55 AM 53.6 °F - 39.2 °F 58% 29.85 in 10.0 mi SW 16.1 mph 25.3 mph N/A   Clear
7:15 AM 51.8 °F - 39.2 °F 62% 29.87 in 10.0 mi WSW 18.4 mph 24.2 mph N/A   Clear
7:35 AM 51.8 °F - 39.2 °F 62% 29.88 in 10.0 mi SW 15.0 mph 21.9 mph N/A   Mostly Cloudy
7:55 AM 50.0 °F - 37.4 °F 62% 29.90 in 10.0 mi SW 18.4 mph 23.0 mph N/A   Overcast
8:15 AM 50.0 °F - 37.4 °F 62% 29.90 in 10.0 mi SW 15.0 mph 23.0 mph N/A   Overcast
8:35 AM 50.0 °F - 37.4 °F 62% 29.90 in 10.0 mi WSW 12.7 mph - N/A   Overcast
8:55 AM 50.0 °F - 37.4 °F 62% 29.91 in 10.0 mi WSW 18.4 mph 24.2 mph N/A   Overcast
9:15 AM 50.0 °F - 37.4 °F 62% 29.90 in 10.0 mi WSW 19.6 mph 25.3 mph N/A   Mostly Cloudy
9:35 AM 50.0 °F - 37.4 °F 62% 29.91 in 10.0 mi SW 24.2 mph 31.1 mph N/A   Mostly Cloudy
9:55 AM 51.8 °F - 37.4 °F 58% 29.91 in 10.0 mi SW 15.0 mph 21.9 mph N/A   Mostly Cloudy
10:15 AM 50.0 °F - 37.4 °F 62% 29.92 in 10.0 mi WSW 16.1 mph 25.3 mph N/A   Overcast
10:35 AM 50.0 °F - 35.6 °F 58% 29.93 in 10.0 mi SW 20.7 mph 26.5 mph N/A   Overcast
10:55 AM 51.8 °F - 33.8 °F 50% 29.93 in 10.0 mi WSW 20.7 mph 26.5 mph N/A   Scattered Clouds
11:35 AM 51.8 °F - 32.0 °F 47% 29.95 in 10.0 mi SW 23.0 mph 28.8 mph N/A   Clear
11:55 AM 51.8 °F - 32.0 °F 47% 29.95 in 10.0 mi WSW 20.7 mph 27.6 mph N/A   Clear
12:15 PM 51.8 °F - 32.0 °F 47% 29.96 in 10.0 mi WSW 19.6 mph 34.5 mph N/A   Clear
12:35 PM 53.6 °F - 32.0 °F 44% 29.97 in 10.0 mi WSW 20.7 mph 33.4 mph N/A   Clear
12:55 PM 51.8 °F - 32.0 °F 47% 29.98 in 10.0 mi WSW 21.9 mph 27.6 mph N/A   Scattered Clouds
1:15 PM 51.8 °F - 32.0 °F 47% 29.98 in 7.0 mi WSW 23.0 mph 32.2 mph N/A   Clear
1:35 PM 51.8 °F - 32.0 °F 47% 29.99 in 10.0 mi SW 23.0 mph 28.8 mph N/A   Scattered Clouds
1:55 PM 51.8 °F - 32.0 °F 47% 29.98 in 10.0 mi West 18.4 mph 31.1 mph N/A   Scattered Clouds
2:15 PM 51.8 °F - 32.0 °F 47% 30.00 in 10.0 mi WSW 21.9 mph 31.1 mph N/A   Scattered Clouds
2:35 PM 51.8 °F - 32.0 °F 47% 30.00 in 10.0 mi WSW 20.7 mph 28.8 mph N/A   Mostly Cloudy
2:55 PM 51.8 °F - 32.0 °F 47% 30.00 in 10.0 mi West 19.6 mph 28.8 mph N/A   Scattered Clouds
3:15 PM 53.6 °F - 30.2 °F 41% 30.01 in 10.0 mi WSW 20.7 mph 28.8 mph N/A   Scattered Clouds
3:35 PM 51.8 °F - 30.2 °F 44% 30.02 in 10.0 mi WSW 19.6 mph 28.8 mph N/A   Mostly Cloudy
3:55 PM 51.8 °F - 30.2 °F 44% 30.02 in 10.0 mi West 19.6 mph 26.5 mph N/A   Scattered Clouds
4:15 PM 50.0 °F - 30.2 °F 47% 30.02 in 10.0 mi West 20.7 mph 31.1 mph N/A   Scattered Clouds
4:35 PM 50.0 °F - 30.2 °F 47% 30.03 in 7.0 mi West 20.7 mph 29.9 mph N/A   Clear
4:55 PM 50.0 °F - 30.2 °F 47% 30.03 in 10.0 mi West 20.7 mph 28.8 mph N/A   Scattered Clouds
5:15 PM 50.0 °F - 30.2 °F 47% 30.04 in 10.0 mi West 21.9 mph 31.1 mph N/A   Scattered Clouds
5:35 PM 48.2 °F - 30.2 °F 50% 30.05 in 10.0 mi West 21.9 mph 32.2 mph N/A   Scattered Clouds
5:55 PM 48.2 °F - 30.2 °F 50% 30.05 in 10.0 mi West 19.6 mph 28.8 mph N/A   Scattered Clouds
6:15 PM 46.4 °F 38.5 °F 30.2 °F 53% 30.06 in 10.0 mi West 21.9 mph 31.1 mph N/A   Mostly Cloudy
6:35 PM 46.4 °F 38.3 °F 30.2 °F 53% 30.07 in 10.0 mi West 23.0 mph 33.4 mph N/A   Mostly Cloudy
6:55 PM 46.4 °F 39.8 °F 30.2 °F 53% 30.07 in 10.0 mi WSW 16.1 mph 25.3 mph N/A   Overcast
7:15 PM 46.4 °F 39.5 °F 30.2 °F 53% 30.08 in 7.0 mi West 17.3 mph 32.2 mph N/A   Overcast
7:35 PM 44.6 °F 36.6 °F 30.2 °F 57% 30.08 in 10.0 mi West 19.6 mph 33.4 mph N/A   Overcast
7:55 PM 44.6 °F 37.2 °F 30.2 °F 57% 30.08 in 10.0 mi West 17.3 mph 26.5 mph N/A   Overcast
8:15 PM 44.6 °F 36.6 °F 30.2 °F 57% 30.09 in 10.0 mi WSW 19.6 mph 27.6 mph N/A   Overcast
8:35 PM 44.6 °F 36.1 °F 30.2 °F 57% 30.09 in 10.0 mi West 21.9 mph 29.9 mph N/A   Overcast
8:55 PM 44.6 °F 35.7 °F 30.2 °F 57% 30.10 in 10.0 mi West 24.2 mph 31.1 mph N/A   Overcast
9:15 PM 44.6 °F 35.7 °F 28.4 °F 53% 30.10 in 10.0 mi West 24.2 mph 33.4 mph N/A   Overcast
9:35 PM 44.6 °F 36.4 °F 28.4 °F 53% 30.10 in 10.0 mi West 20.7 mph 26.5 mph N/A   Overcast
9:55 PM 44.6 °F 36.4 °F 28.4 °F 53% 30.10 in 10.0 mi West 20.7 mph 36.8 mph N/A   Overcast
10:15 PM 44.6 °F 36.6 °F 28.4 °F 53% 30.10 in 10.0 mi West 19.6 mph 28.8 mph N/A   Overcast
10:35 PM 44.6 °F 36.9 °F 28.4 °F 53% 30.11 in 10.0 mi WSW 18.4 mph 26.5 mph N/A   Overcast
10:55 PM 44.6 °F 36.4 °F 28.4 °F 53% 30.11 in 10.0 mi West 20.7 mph 26.5 mph N/A   Overcast
11:15 PM 42.8 °F 34.0 °F 28.4 °F 57% 30.11 in 10.0 mi West 20.7 mph 31.1 mph N/A   Overcast
11:35 PM 42.8 °F 35.8 °F 28.4 °F 57% 30.10 in 10.0 mi West 13.8 mph 21.9 mph N/A   Overcast
11:55 PM 42.8 °F 36.2 °F 28.4 °F 57% 30.09 in 10.0 mi WSW 12.7 mph 20.7 mph N/A   Overcast